Tracking 19969 objects as of 12-Nov-2019
Live streaming from Space Station
objects crossing your sky now
Track the group of recently launched Starlink satellites

ZHUHAI-1 03E

Track ZHUHAI-1 03E now!
10-day predictions


NORAD ID: 44539
Int'l Code: 2019-060F
Perigee: 512.5 km
Apogee: 527.0 km
Inclination: 97.4 °
Period: 94.9 minutes
Semi major axis: 6890 km
RCS: Unknown
Launch date: September 19, 2019
Source: People's Republic of China (PRC)
Launch site: Jiuquan Satellite Launch Center, China (JSC)
aabbcc
Your satellite tracking list
Your tracking list is empty




NASA's NSSDC Master Catalog

Two Line Element Set (TLE):
1 44539U 19060F   19316.15420234  .00000614  00000-0  33680-4 0  9997
2 44539  97.4085  65.7162 0010509 137.4304 355.3851 15.17762172  8180
Source of the keplerian elements: AFSPC